Home > Weather > Lublin > Past weeks

Flag for Poland Past Weather in Lublin, Poland — Yesterday and Last 2 Weeks

Now
75 °F

Partly sunny.


Feels Like: 78 °F
Forecast: 56 / 79 °F
Wind: 1 mph from North

Location: Lublin Radawiec

Current Time: May 27, 2016 at 4:18:47 PM

Latest Report: May 27, 2016 at 3:00 PM


Visibility: 19 mi

Pressure: 30.02 "Hg

Humidity: 47%

Dew Point: 53 °F

Location of LublinLocation

Past Weather in Lublin — Graph

°F

Lublin Temperature Yesterday

Maximum temperature yesterday: 71 °F (at 3:00 PM)
Minimum temperature yesterday: 51 °F (at 5:00 AM)
Average temperature yesterday: 60 °F

High & Low Weather Summary for the Past Weeks

 TemperatureHumidityPressure
High76 °F (May 23, 3:00 PM)98% (May 14, 9:00 PM)30.10 "Hg (May 14, 9:00 PM)
Low35 °F (May 19, 5:00 AM)32% (May 24, 3:00 PM)29.35 "Hg (May 14, 4:00 AM)
Average57 °F71%29.86 "Hg
* Reported May 12 3:00 PM — May 27 3:00 PM, Lublin, Weather by CustomWeather, © 2016

Note: Actual official high and low records may vary slightly from our data, if they occured in-between our weather recording intervals... More about our weather records

Advertising

Lublin Weather History for the Previous 24 Hours

Scroll right to see more
 ConditionsComfort  
Time TempWeatherWind HumidityBarometerVisibility
3:00 PM
Fri, May 27
75 °FPartly sunny.1 mph47%30.02 "Hg19 mi
2:00 PM74 °FPartly sunny.1 mph47%30.04 "Hg16 mi
1:00 PM74 °FPartly sunny.2 mph47%30.04 "Hg22 mi
12:00 PM71 °FPartly sunny.1 mph54%30.06 "Hg17 mi
11:00 AM73 °FScattered clouds.2 mph56%30.06 "Hg14 mi
10:00 AM70 °FScattered clouds.2 mph59%30.06 "Hg15 mi
9:00 AM68 °FScattered clouds.1 mph66%30.06 "Hg14 mi
8:00 AM65 °FPassing clouds.1 mph75%30.06 "Hg11 mi
7:00 AM60 °FPassing clouds.1 mph82%30.06 "Hg9 mi
6:00 AM55 °FFog.1 mph98%30.06 "Hg3 mi
5:00 AM52 °FFog.2 mph97%30.06 "Hg2 mi
4:00 AM53 °FFog.1 mph97%30.04 "Hg3 mi
3:00 AM54 °FFog.2 mph97%30.03 "Hg5 mi
2:00 AM55 °FClear.3 mph95%30.03 "Hg6 mi
1:00 AM56 °FClear.3 mph93%30.03 "Hg7 mi
12:00 AM55 °FPassing clouds.3 mph91%30.03 "Hg9 mi
11:00 PM
Thu, May 26
56 °FPassing clouds.3 mph89%30.03 "Hg9 mi
10:00 PM56 °FPassing clouds.3 mph88%30.02 "Hg12 mi
9:00 PM60 °FPassing clouds.5 mph81%30.01 "Hg25 mi
8:00 PM58 °FPassing clouds.2 mph85%29.99 "Hg22 mi
7:00 PM60 °FScattered clouds.1 mph86%29.98 "Hg22 mi
6:00 PM62 °FPartly sunny.2 mph79%29.98 "Hg25 mi
4:00 PM69 °FThunderstorms. Overcast.2 mph64%29.94 "Hg19 mi
Weather by CustomWeather, © 2016

See weather overviewHow to use our weather pages